Time,B instrument,Bx,By,Bz,sigma B,Ion instrument,Status,Tp_par,Tp_perp,carrot,r_sun,clat,clong,earth_he_angle,n_p,vp_x,vp_y,vp_z,vth_p_par,vth_p_perp
1980-03-04 00:23:52,-1,nan,nan,nan,nan,1,3,nan,nan,1692,0.97806489,-1.0651045,116.39575,280.76685,nan,379.624,12.6491,-16.0137,nan,nan
1980-03-04 00:23:56,-1,nan,nan,nan,nan,1,3,nan,nan,1692,0.97806489,-1.0651045,116.39575,280.76685,nan,379.624,12.649,-16.0137,nan,nan
1980-03-04 01:07:04,-1,nan,nan,nan,nan,1,3,nan,nan,1692,0.97802001,-1.0677929,115.98828,280.75781,nan,371.001,0.180831,-24.1761,nan,nan
1980-03-04 01:07:08,-1,nan,nan,nan,nan,1,3,nan,nan,1692,0.97802001,-1.0677929,115.98828,280.75781,nan,371.001,0.180833,-24.1761,nan,nan
1980-03-04 01:50:16,-1,nan,nan,nan,nan,1,3,nan,nan,1692,0.97797602,-1.0704212,115.58496,280.74902,nan,347.538,-2.28517,49.8569,nan,nan
1980-03-04 02:33:28,-1,nan,nan,nan,nan,1,3,nan,nan,1692,0.97793186,-1.0730486,115.18164,280.74023,nan,336.496,-0.636794,23.7309,nan,nan
1980-03-04 03:16:40,-1,nan,nan,nan,nan,1,3,nan,nan,1692,0.97788757,-1.075676,114.77832,280.73145,nan,382.721,-0.632994,-32.4842,nan,nan
1980-03-04 03:59:52,-1,nan,nan,nan,nan,1,3,nan,nan,1692,0.97784323,-1.0783033,114.375,280.72266,nan,393.677,-16.0175,-31.071,nan,nan
1980-03-04 04:43:04,-1,nan,nan,nan,nan,1,3,nan,nan,1692,0.97779757,-1.0809927,113.96753,280.71362,nan,399.702,-7.79436,-31.2609,nan,nan
1980-03-04 05:26:16,-1,nan,nan,nan,nan,1,3,nan,nan,1692,0.9777528,-1.083621,113.56421,280.70483,nan,337.848,-1.5633,16.07,nan,nan
1980-03-04 06:09:28,-1,nan,nan,nan,nan,1,3,nan,nan,1692,0.97770798,-1.0862484,113.16089,280.69604,nan,363.565,9.52213,-11.9156,nan,nan
1980-03-04 06:52:40,-1,nan,nan,nan,nan,1,3,nan,nan,1692,0.97766298,-1.0888767,112.75757,280.68726,nan,372.441,-4.73856,-29.3081,nan,nan
1980-03-04 07:11:48,-1,nan,nan,nan,nan,1,4,nan,nan,1692,0.97764301,-1.0900383,112.57788,280.68335,nan,nan,nan,nan,nan,nan
1980-03-04 07:35:52,-1,nan,nan,nan,nan,1,3,nan,nan,1692,0.9776178,-1.0915051,112.35034,280.67847,nan,375.481,-0.506621,-21.3388,nan,nan
1980-03-04 07:55:00,-1,nan,nan,nan,nan,1,4,nan,nan,1692,0.9776091,-0.94999957,112.09308,280.59308,nan,nan,nan,nan,nan,nan
1980-03-04 09:26:03,-1,nan,nan,nan,nan,1,4,nan,nan,1692,0.97750056,-1.0982904,111.32007,280.65601,nan,nan,nan,nan,nan,nan
1980-03-04 09:27:24,-1,nan,nan,nan,nan,1,3,nan,nan,1692,0.97749949,-1.0983515,111.30811,280.65576,nan,345.119,17.0661,-38.9204,nan,nan
1980-03-04 09:27:38,-1,nan,nan,nan,nan,1,3,nan,nan,1692,0.97749949,-1.0983515,111.3042,280.65576,nan,362.7,-0.294969,-12.0346,nan,nan
1980-03-04 09:28:59,-1,nan,nan,nan,nan,1,3,nan,nan,1692,0.97749847,-1.0984125,111.29224,280.65552,nan,368.061,6.32745,-2.99122,nan,nan
1980-03-04 09:29:39,-1,nan,nan,nan,nan,1,3,nan,nan,1692,0.9774974,-1.0984735,111.28809,280.65527,nan,366.324,6.33814,10.4673,nan,nan
1980-03-04 09:30:21,-1,nan,nan,nan,nan,1,3,nan,nan,1692,0.97749633,-1.0985355,111.28027,280.65527,nan,366.351,5.28885,-6.77629,nan,nan
1980-03-04 09:31:01,1,-1.27333,3.86,0.273333,0.436247,1,1,95979.3,107496.0,1692,0.97749525,-1.0985966,111.27612,280.65503,3.39901,365.309,1.09661,-4.60054,39.8058,42.1263
1980-03-04 09:31:42,1,-0.735714,3.21429,-0.792857,0.892771,1,1,101348.0,103537.0,1692,0.97749525,-1.0985966,111.26831,280.65503,3.13843,377.5,-5.00766,-8.66571,40.904,41.3434
1980-03-04 09:32:22,1,-0.185714,1.35714,-2.61429,0.539085,1,1,93842.7,94071.5,1692,0.97749418,-1.0986576,111.26025,280.65479,3.16701,386.878,-23.6045,-25.3911,39.3603,39.4082
1980-03-04 09:33:03,1,-1.22,1.86,-2.59333,0.510512,1,1,91874.2,92736.5,1692,0.97749317,-1.0987186,111.2561,280.65454,3.09589,372.903,-16.0693,-24.8583,38.9453,39.1276
1980-03-04 09:33:43,1,-0.55,1.33571,-3.00714,0.425645,1,1,67787.7,79921.0,1692,0.97749317,-1.0987186,111.24829,280.65454,2.80751,376.778,-18.4561,-28.7624,33.4529,36.3236
1980-03-04 09:34:24,1,-0.586667,1.86,-2.72,0.398107,1,1,85541.6,94837.9,1692,0.97749209,-1.0987797,111.24414,280.6543,2.9961,379.289,-19.5186,-28.8578,37.5791,39.5684
1980-03-04 09:35:04,1,-0.407143,1.76429,-2.72143,0.27581,1,1,81763.7,54416.2,1692,0.97749102,-1.0988407,111.23608,280.65405,3.11257,339.582,35.681,-22.7259,36.7399,29.9724
1980-03-04 09:35:44,1,-1.1,2.22,-2.22667,0.443722,1,1,69660.2,84856.0,1692,0.97749102,-1.0988407,111.23218,280.65405,2.87842,369.485,-12.3275,-25.4205,33.9118,37.4282
1980-03-04 09:36:24,1,-0.553333,2.02,-2.44667,0.35201,1,1,71406.9,91708.0,1692,0.97748995,-1.0989017,111.22437,280.65405,2.90542,376.822,-13.2049,-26.2181,34.3343,38.91
1980-03-04 09:37:05,1,-0.692857,1.93571,-2.35,0.375731,1,1,89267.5,95012.1,1692,0.97748893,-1.0989628,111.21631,280.65381,2.93943,381.31,-71.9026,-25.3718,38.3888,39.6047
1980-03-04 09:37:45,1,-0.726667,2.49333,-2.07333,0.42332,1,1,76553.6,96389.6,1692,0.97748893,-1.0989628,111.2124,280.65381,2.92696,375.731,-6.48431,-19.5137,35.5501,39.8908
1980-03-04 09:38:27,1,-0.707143,2.06429,-2.37143,0.390055,1,1,96498.6,106093.0,1692,0.97748786,-1.0990238,111.20435,280.65356,3.14152,378.904,-15.3877,-24.7435,39.9134,41.8506
1980-03-04 09:39:07,1,-0.78,2.77333,-1.94,0.551926,1,1,87463.6,98350.7,1692,0.97748679,-1.0990849,111.2002,280.65332,3.09155,370.893,-5.50193,-17.6148,37.999,40.2946
1980-03-04 09:39:48,1,-0.533333,2.71333,-1.83333,0.342929,1,1,94141.1,104745.0,1692,0.97748679,-1.0990849,111.19238,280.65332,3.21908,377.749,-7.09703,-19.4261,39.4228,41.5838
1980-03-04 09:40:28,1,-0.646667,2.42667,-2.00667,0.72,1,1,82937.6,92221.9,1692,0.97748572,-1.0991468,111.18433,280.65308,3.23784,375.69,-10.8962,-19.4841,37.0027,39.0189
1980-03-04 10:15:56,-1,nan,nan,nan,nan,1,3,nan,nan,1692,0.97744858,-1.1012859,110.85303,280.646,nan,343.902,-4.04017,10.5585,nan,nan
1980-03-04 10:16:36,1,-3.57692,2.66923,1.57692,0.421886,1,1,45595.3,94421.4,1692,0.97744751,-1.101347,110.84888,280.64575,2.81234,343.37,-3.90096,14.8606,27.4358,39.4815
1980-03-04 10:17:17,1,-3.53846,2.66154,1.15385,0.877665,1,1,70651.9,102356.0,1692,0.97744644,-1.101408,110.84082,280.64551,2.96064,343.816,-2.6088,5.93689,34.1523,41.1069
1980-03-04 10:17:57,1,-3.88462,2.63077,1.49231,0.434462,1,1,60813.5,114977.0,1692,0.97744644,-1.101408,110.83691,280.64551,3.09742,346.782,-4.56896,10.5398,31.6853,43.5676
1980-03-04 10:18:39,1,-3.73846,2.73077,0.9,0.445357,1,1,68888.4,108050.0,1692,0.97744536,-1.101469,110.8291,280.64551,3.27959,341.701,-4.64424,7.00953,33.7234,42.2348
1980-03-04 10:20:00,1,-3.36,2.46,-0.06,0.589237,1,1,53585.1,94720.6,1692,0.97744322,-1.1015911,110.81689,280.64502,2.91141,346.552,-0.22386,-1.46064,29.7427,39.544
1980-03-04 10:23:03,-1,nan,nan,nan,nan,1,3,nan,nan,1692,0.9774524,-0.95891315,110.70734,280.56281,nan,350.215,-5.74726,-0.276142,nan,nan
1980-03-04 10:25:37,1,-2.8,2.93333,-0.5,0.724952,1,1,72735.2,86296.7,1692,0.97743899,-1.1018362,110.76538,280.64429,3.01791,349.16,-7.14101,-11.9961,34.6522,37.7446
1980-03-04 10:25:45,1,-2.91429,3.1,0.0428571,0.33503,1,1,76235.7,96957.4,1692,0.97743791,-1.1018972,110.76123,280.64404,3.18993,357.736,0.643926,-11.809,35.4762,40.0081
1980-03-04 10:26:05,1,-2.9875,3.075,0.4625,0.418703,1,1,73721.2,119688.0,1692,0.97743684,-1.1019583,110.76099,280.6438,3.47469,350.324,0.825272,-4.2603,34.8862,44.4512
1980-03-04 10:27:26,1,-3.37143,2.42857,2.94286,0.548467,1,1,58221.7,116357.0,1692,0.97743577,-1.1020193,110.74512,280.64355,3.28871,349.023,0.075799,20.3277,31.0028,43.8282
1980-03-04 10:28:47,1,-2.95714,3.17143,2.41429,0.430946,1,1,65955.7,115125.0,1692,0.97743469,-1.1020803,110.73315,280.64331,3.20687,351.287,3.68588,21.006,32.9977,43.5956
1980-03-04 10:31:29,1,-3.83333,2.73333,2.06667,0.251661,1,1,47275.7,99466.6,1692,0.97743154,-1.1022644,110.70923,280.64282,2.82846,344.117,-3.43641,21.3668,27.9368,40.5225
1980-03-04 10:32:50,1,-3.17143,2.84286,2.74286,0.467298,1,1,85443.6,100913.0,1692,0.97743046,-1.1023254,110.69727,280.64258,3.20371,348.653,-0.232014,26.5901,37.5576,40.816
1980-03-04 10:34:11,1,-3.32857,3.02857,2.17143,0.374711,1,1,71723.9,109568.0,1692,0.97742832,-1.1024475,110.68506,280.64209,3.55291,350.118,-0.0937437,17.7837,34.4104,42.5303
1980-03-04 10:35:32,1,-3.15,3.05,1.81667,0.403801,1,1,80044.4,100802.0,1692,0.97742724,-1.1025085,110.66919,280.64185,3.37984,350.263,-1.83958,14.5659,36.3516,40.7937
1980-03-04 10:36:53,1,-3.71429,2.32857,0.314286,0.23035,1,1,53396.3,106991.0,1692,0.97742617,-1.1025696,110.65747,280.64185,3.00416,340.951,-7.82706,-5.27184,29.6902,42.0272
1980-03-04 10:38:14,1,-3.16667,2.11667,-0.766667,0.423281,1,1,68121.0,101995.0,1692,0.97742409,-1.1026917,110.64526,280.64136,3.06826,348.234,-7.54232,-14.1418,33.535,41.0344
1980-03-04 10:39:35,1,-3.81667,1.93333,2.13333,0.292973,1,1,46248.1,77229.4,1692,0.97742301,-1.1027527,110.6333,280.64111,2.48521,340.463,-7.28371,24.6312,27.6315,35.7067
1980-03-04 10:40:56,1,-3.26667,1.28333,3.93333,0.30957,1,1,67902.3,117859.0,1692,0.97742194,-1.1028147,110.62134,280.64087,3.17882,350.387,-16.7219,46.1017,33.4811,44.1102
1980-03-04 10:42:17,1,-3.9,2.18571,2.08571,0.306394,1,1,63425.3,92856.5,1692,0.97741979,-1.1029367,110.60938,280.64063,3.03295,337.223,-7.71274,21.0219,32.3586,39.1529
1980-03-04 10:43:38,1,-3.83333,1.76667,2.75,0.400347,1,1,124877.0,132344.0,1692,0.97741872,-1.1029978,110.59351,280.64038,3.93132,339.145,-15.0666,26.0332,45.4045,46.7423
1980-03-04 10:44:59,1,-3.85714,1.75714,2.65714,0.189521,1,1,45423.6,134302.0,1692,0.97741765,-1.1030588,110.58154,280.64014,3.26289,334.968,-14.245,29.2304,27.3841,47.0867
1980-03-04 11:34:18,-1,nan,nan,nan,nan,1,3,nan,nan,1692,0.97736424,-1.1061153,110.12207,280.62988,nan,334.505,-26.5304,21.7212,nan,nan
1980-03-04 11:35:39,1,-4.6,1.76667,2.3,0.418994,1,1,36590.4,75301.6,1692,0.97736317,-1.1061764,110.11011,280.62964,2.62925,335.508,-17.5838,13.7476,24.5777,35.2582
1980-03-04 11:37:00,1,-3.91667,1.98333,3.55,0.286259,1,1,48504.9,80809.1,1692,0.97736102,-1.1062984,110.09399,280.62915,2.71675,341.521,-13.2992,32.8784,28.2977,36.5248
1980-03-04 11:38:21,1,-3.53333,1.55,4.13333,0.321887,1,1,49449.4,99550.6,1692,0.97735995,-1.1063595,110.08203,280.62891,2.94207,346.742,-20.6086,44.4096,28.5719,40.5396
1980-03-04 11:39:42,1,-3.86667,2.2,2.8,0.54365,1,1,46423.5,93508.0,1692,0.97735888,-1.1064205,110.07007,280.62866,2.94345,344.73,-5.0711,24.936,27.6839,39.29
1980-03-04 11:41:03,1,-3.88333,2.35,3.4,0.529675,1,1,35259.7,94853.8,1692,0.97735679,-1.1065435,110.05811,280.62842,2.83906,345.894,-12.2406,30.3602,24.1267,39.5717
1980-03-04 11:45:06,1,-3.85714,2.64286,2.25714,0.210926,1,1,62468.5,98652.9,1692,0.9773525,-1.1067877,110.01807,280.62744,3.34323,347.741,-5.40852,28.3136,32.1136,40.3564
1980-03-04 11:45:08,1,-3.85,2.63333,2.26667,0.224227,1,1,53740.9,91003.1,1692,0.97736484,-0.96385825,109.93668,280.54605,3.04452,348.487,-2.1241,19.1432,29.7859,38.7602
1980-03-04 11:46:27,1,-3.7,2.65,2.06667,1.13932,1,1,56914.0,92263.2,1692,0.97735143,-1.1068487,110.0061,280.6272,3.26272,343.93,-31.2063,43.1304,30.6526,39.0276
1980-03-04 11:46:29,1,-3.71429,2.54286,2.25714,1.18339,1,1,63881.2,90270.9,1692,0.97735143,-1.1068487,110.0061,280.6272,3.2588,349.578,0.992593,3.55673,32.4746,38.604
1980-03-04 11:47:50,1,-4.11429,1.28571,3.48571,0.626295,1,1,39636.6,81777.6,1692,0.97735035,-1.1069098,109.99438,280.6272,2.94093,343.815,-20.6703,35.6669,25.5803,36.743
1980-03-04 11:49:11,1,-4.85714,-0.685714,2.62857,0.287849,1,1,61266.3,100355.0,1692,0.97734821,-1.1070318,109.98218,280.62671,3.12336,333.069,-37.2781,25.7086,31.8031,40.7032
1980-03-04 11:50:32,1,-4.66667,-0.3,3.38333,0.746287,1,1,59105.8,106893.0,1692,0.97734714,-1.1070938,109.97021,280.62646,3.47837,335.595,-28.5957,27.4107,31.2373,42.0081
1980-03-04 11:51:53,1,-4.58333,0.35,3.4,0.337474,1,1,59921.8,103139.0,1692,0.97734606,-1.1071548,109.95435,280.62622,3.18623,339.448,-27.7386,30.8232,31.4522,41.2639
1980-03-04 11:53:14,1,-4.4,-0.0333333,3.66667,0.343188,1,1,68312.8,109481.0,1692,0.97734392,-1.1072769,109.94238,280.62598,3.27868,337.145,-30.1682,38.106,33.5822,42.5136
1980-03-04 11:54:35,1,-4.33333,1.68333,2.15,0.431406,1,1,63459.0,98192.7,1692,0.97734284,-1.107338,109.93042,280.62573,3.07141,338.63,-13.863,12.6595,32.3671,40.2622
1980-03-04 11:55:56,1,-3.02857,3.57143,1.14286,0.444926,1,1,58280.0,87806.4,1692,0.97734177,-1.107399,109.91846,280.62549,3.26247,351.797,1.20417,1.52665,31.0183,38.0733
1980-03-04 11:57:17,1,-2.72857,3.6,1.75714,0.505884,1,1,70112.1,91337.0,1692,0.97733963,-1.1075211,109.90625,280.625,3.263,362.321,7.73574,10.0199,34.0216,38.8312
1980-03-04 11:58:38,1,-2.82857,3.47143,1.52857,0.885023,1,1,58387.1,92486.6,1692,0.97733855,-1.1075821,109.89429,280.62476,3.17318,353.709,1.64506,18.393,31.0468,39.0748
1980-03-04 11:59:59,1,-4.4,1.77143,2.05714,0.380118,1,1,51233.2,90591.3,1692,0.97733748,-1.1076431,109.87842,280.62451,3.23522,336.459,-17.1969,19.6109,29.0826,38.6724
1980-03-04 12:01:20,1,-4.05,2.26667,2.53333,0.224227,1,1,43994.8,87701.1,1692,0.97733539,-1.1077662,109.86646,280.62427,3.09356,340.707,-10.5533,22.6983,26.95,38.0505
1980-03-04 12:02:41,1,-4.36667,2.11667,2.06667,0.298608,1,1,49318.2,95796.7,1692,0.97733426,-1.1078272,109.85449,280.62402,3.22908,339.724,-10.0676,18.7263,28.5339,39.768
1980-03-04 12:04:02,1,-4.1,2.38333,2.2,0.219216,1,1,53313.8,92258.4,1692,0.97733212,-1.1079493,109.84229,280.62354,3.39503,341.624,-9.17008,20.1857,29.6673,39.0266
1980-03-04 12:05:23,1,-4.4,2.03333,1.95,0.323608,1,1,57008.7,85714.3,1692,0.97733104,-1.1080103,109.83032,280.62329,3.28675,341.668,-11.033,16.4807,30.6781,37.617
1980-03-04 12:06:44,1,-4.06667,2.4,2.4,0.319722,1,1,51908.4,83118.1,1692,0.97732997,-1.1080713,109.8186,280.62329,3.03169,342.489,-7.73974,18.8386,29.2736,37.043
1980-03-04 12:08:05,1,-3.92857,2.28571,2.78571,0.533376,1,1,45855.3,81554.5,1692,0.97732782,-1.1081934,109.8064,280.6228,2.95296,345.932,-4.61226,24.1715,27.5139,36.6929
1980-03-04 12:09:26,1,-4.26667,2.06667,2.53333,0.270801,1,1,52610.8,79626.2,1692,0.97732675,-1.1082554,109.79053,280.62256,3.09843,339.79,-11.8878,20.4511,29.471,36.2565
1980-03-04 12:10:47,1,-3.91667,2.46667,2.66667,0.386221,1,1,49069.9,83914.4,1692,0.97732568,-1.1083164,109.77856,280.62231,2.94648,340.423,-10.6989,21.9918,28.462,37.22
1980-03-04 12:12:08,1,-3.71667,2.35,2.8,0.768476,1,1,55290.2,99410.8,1692,0.97732353,-1.1084385,109.7666,280.62207,3.19266,341.188,-7.28944,21.4461,30.2122,40.5112
1980-03-04 12:13:29,1,-4.38571,1.57143,2.24286,0.29277,1,1,35924.8,86649.4,1692,0.97732246,-1.1084995,109.75464,280.62183,2.983,335.569,-19.3449,19.5766,24.3531,37.8217
1980-03-04 12:14:50,1,-4.81429,1.32857,1.67143,0.337457,1,1,48067.4,84804.3,1692,0.97732139,-1.1085606,109.74268,280.62158,3.09512,334.445,-20.3589,15.8229,28.1698,37.4168
1980-03-04 12:16:11,1,-4.8,1.4,1.96667,0.354338,1,1,43718.1,85129.6,1692,0.97731924,-1.1086826,109.73047,280.62109,3.03623,335.762,-15.2493,14.1421,26.8651,37.4885
1980-03-04 12:17:32,1,-5.28333,0.716667,1.06667,0.380789,1,1,41408.6,86504.3,1692,0.97731817,-1.1087446,109.7146,280.62085,2.89667,330.799,-28.5586,7.00206,26.1459,37.79
1980-03-04 12:18:53,1,-4.41429,2.14286,1.78571,0.728431,1,1,83595.8,98105.3,1692,0.97731709,-1.1088057,109.70288,280.62085,3.68293,338.203,-17.8693,6.901,37.1492,40.2443
1980-03-04 12:20:14,1,-4.94286,1.0,1.28571,0.343452,1,1,51856.7,86781.3,1692,0.97731495,-1.1089277,109.69067,280.62036,3.25622,334.078,-19.2812,3.78141,29.2591,37.8504
1980-03-04 12:21:35,1,-2.71667,3.45,2.16667,0.315348,1,1,38810.4,83197.1,1692,0.97731388,-1.1089888,109.67871,280.62012,2.81977,351.379,4.54307,20.2717,25.3123,37.0606
1980-03-04 12:22:56,1,-4.52857,1.62857,1.1,0.368117,1,1,37242.7,101786.0,1692,0.9773128,-1.1090498,109.66675,280.61987,3.31363,335.112,-12.8101,4.58662,24.7958,40.9922
1980-03-04 12:24:17,1,-4.36667,1.51667,1.15,0.355121,1,1,46087.9,100858.0,1692,0.97731066,-1.1091719,109.65479,280.61963,3.25043,333.097,-22.1562,10.0976,27.5836,40.8051
1980-03-04 12:25:38,1,-4.18333,2.16667,0.683333,0.318852,1,1,56928.8,97354.2,1692,0.97730958,-1.1092329,109.63892,280.61938,3.33521,340.052,-7.8222,-0.95035,30.6566,40.0899
1980-03-04 12:26:59,1,-4.48333,1.98333,1.53333,0.402078,1,1,52910.6,96500.7,1692,0.97730851,-1.1092949,109.62695,280.61914,3.26971,336.796,-11.3902,4.77516,29.5549,39.9138
1980-03-04 12:28:18,1,-4.17143,2.5,1.45714,0.344638,1,1,61034.6,87805.7,1692,0.97730637,-1.109417,109.61475,280.61865,3.325,341.851,-7.84196,9.01249,31.7428,38.0732
1980-03-04 12:29:39,1,-3.75,2.46667,2.33333,0.351584,1,1,37543.3,60997.6,1692,0.97730529,-1.109478,109.60278,280.61841,3.32918,309.503,10.688,17.9187,24.8957,31.7332
1980-03-04 12:31:00,1,-4.25714,2.08571,2.31429,0.231234,1,1,52564.8,76706.3,1692,0.97730315,-1.1096001,109.59082,280.61816,3.23021,343.118,-6.69328,19.7981,29.4581,35.5855
1980-03-04 12:32:21,1,-4.71429,1.81429,1.5,0.301696,1,1,45503.5,95220.9,1692,0.97730201,-1.1096611,109.57886,280.61792,2.74881,336.8,-13.582,7.97762,27.4082,39.6483
1980-03-04 12:33:44,1,-4.81667,1.68333,1.56667,0.273861,1,1,47885.2,93538.6,1692,0.97730094,-1.1097221,109.56299,280.61768,3.07316,333.449,-16.3411,8.19172,28.1163,39.2965
1980-03-04 12:35:05,1,-4.92857,1.48571,1.5,0.338665,1,1,53380.8,86648.7,1692,0.9772988,-1.1098452,109.55078,280.61719,3.12965,332.657,-18.4798,14.0222,29.6859,37.8215
1980-03-04 12:36:26,1,-4.88333,1.35,1.16667,0.243812,1,1,53291.8,92230.0,1692,0.97729772,-1.1099062,109.53906,280.61719,3.04964,333.428,-16.7783,8.05908,29.6612,39.0206
1980-03-04 12:37:47,1,-4.68333,1.81667,1.83333,0.261406,1,1,41886.1,88734.1,1692,0.97729665,-1.1099672,109.5271,280.61694,2.90603,337.908,-13.3018,15.4836,26.2962,38.2739
1980-03-04 12:39:08,1,-4.65,1.56667,1.5,0.195078,1,1,43452.8,86245.2,1692,0.9772945,-1.1100893,109.51489,280.61646,2.95834,333.724,-13.2302,9.27753,26.7835,37.7334
1980-03-04 12:40:29,-1,nan,nan,nan,nan,1,3,nan,nan,1692,0.97729343,-1.1101503,109.50293,280.61621,nan,334.947,-16.0304,13.9583,nan,nan
1980-03-04 12:41:50,-1,nan,nan,nan,nan,1,3,nan,nan,1692,0.97729236,-1.1102114,109.48706,280.61597,nan,338.272,-13.6452,16.4954,nan,nan
1980-03-04 12:43:11,-1,nan,nan,nan,nan,1,3,nan,nan,1692,0.97729021,-1.1103344,109.4751,280.61572,nan,338.431,-9.28472,17.8299,nan,nan
1980-03-04 12:44:32,-1,nan,nan,nan,nan,1,3,nan,nan,1692,0.97728914,-1.1103954,109.46313,280.61548,nan,339.208,-12.3823,20.9445,nan,nan
1980-03-04 12:45:53,-1,nan,nan,nan,nan,1,3,nan,nan,1692,0.97728807,-1.1104565,109.45117,280.61523,nan,339.391,-14.6996,21.4942,nan,nan
1980-03-04 12:47:14,-1,nan,nan,nan,nan,1,3,nan,nan,1692,0.97728592,-1.1105785,109.43896,280.61475,nan,342.992,-8.74111,25.4059,nan,nan
1980-03-04 12:48:35,-1,nan,nan,nan,nan,1,3,nan,nan,1692,0.97728485,-1.1106396,109.42725,280.61475,nan,343.726,-1.42197,19.9382,nan,nan
1980-03-04 12:49:56,-1,nan,nan,nan,nan,1,3,nan,nan,1692,0.97728378,-1.1107006,109.41138,280.6145,nan,342.442,-17.6302,34.1483,nan,nan
1980-03-04 12:51:17,1,-0.928571,4.14286,0.614286,0.609449,1,1,82745.1,104642.0,1692,0.97728163,-1.1108227,109.39917,280.61401,4.01265,370.155,10.681,-6.95429,36.9598,41.5634
1980-03-04 12:53:59,1,0.2,4.32857,0.2,0.26573,1,1,112099.0,64736.0,1692,0.97727948,-1.1109457,109.37524,280.61353,3.28371,387.867,11.0563,-2.19464,43.0188,32.6912
1980-03-04 12:55:20,1,-0.985714,4.4,1.67143,0.293466,1,1,56134.5,61598.2,1692,0.97727734,-1.1110678,109.36328,280.61328,2.93482,370.971,9.17944,15.5508,30.442,31.8891
1980-03-04 12:56:41,1,-0.185714,4.55714,1.05714,0.457143,1,1,164529.0,71810.3,1692,0.97727627,-1.1111288,109.35132,280.61304,4.1699,379.406,13.1765,7.174,52.1169,34.4311
1980-03-04 12:58:02,1,-0.842857,4.38571,2.04286,0.641745,1,1,49577.7,64673.8,1692,0.97727412,-1.1112509,109.33521,280.61255,3.2045,372.005,9.93333,18.5459,28.6089,32.6755
1980-03-04 12:59:23,1,-1.04286,4.42857,2.3,0.156492,1,1,48828.6,53571.2,1692,0.97727305,-1.1113119,109.32324,280.6123,2.31935,369.063,12.0672,19.8068,28.3919,29.7388
1980-03-04 13:00:44,1,-1.37143,4.08571,2.88571,0.589361,1,1,45411.5,64439.4,1692,0.97727197,-1.1113739,109.31152,280.6123,2.86201,364.659,11.5735,17.5674,27.3805,32.6162
1980-03-04 13:02:05,1,-1.01429,4.12857,2.62857,0.534141,1,1,54557.2,78645.7,1692,0.97726977,-1.111496,109.29932,280.61182,3.07611,372.204,13.7367,20.209,30.0112,36.0326
1980-03-04 13:03:26,-1,nan,nan,nan,nan,1,4,nan,nan,1692,0.9772687,-1.111557,109.28735,280.61157,nan,nan,nan,nan,nan,nan
1980-03-04 13:04:47,1,-1.85714,4.34286,2.28571,0.431419,1,1,59376.7,72881.2,1692,0.97726762,-1.111618,109.27539,280.61133,3.02911,366.727,14.0865,19.3344,31.3088,34.6869
1980-03-04 13:06:08,1,-1.4,4.01429,2.44286,0.930876,1,1,57421.1,74227.3,1692,0.97726548,-1.1117401,109.25952,280.61108,3.46774,376.793,11.7443,14.7936,30.7889,35.0058
1980-03-04 13:07:29,1,-1.91667,4.0,3.13333,0.346811,1,1,50686.3,76781.2,1692,0.9772644,-1.1118011,109.24756,280.61084,3.09354,357.675,6.97612,29.3596,28.927,35.6029
1980-03-04 13:08:50,1,-0.428571,4.4,1.84286,0.368671,1,1,43683.5,82617.2,1692,0.97726333,-1.1118622,109.2356,280.6106,3.22289,378.226,12.2791,16.3044,26.8545,36.9312
1980-03-04 13:10:11,1,-0.442857,4.75714,1.48571,0.268024,1,1,107688.0,76694.5,1692,0.97726119,-1.1119852,109.22339,280.61011,3.59686,377.477,12.7047,8.82329,42.164,35.5828
1980-03-04 13:14:14,1,-0.742857,4.54286,1.38571,0.321349,1,1,58119.6,65866.6,1692,0.97725683,-1.1122293,109.1875,280.60938,3.24103,372.997,9.56908,6.94113,30.9756,32.9754
1980-03-04 13:15:35,1,-1.04286,4.54286,1.9,0.243277,1,1,61959.2,81604.7,1692,0.97725576,-1.1122904,109.17163,280.60913,2.82799,374.029,16.2427,12.5834,31.9824,36.7042
1980-03-04 13:16:56,1,-2.08571,4.12857,2.24286,0.453557,1,1,48309.9,61133.3,1692,0.97725469,-1.1123514,109.15967,280.60889,2.52397,360.221,10.1365,22.5701,28.2407,31.7685
1980-03-04 13:18:17,-1,nan,nan,nan,nan,1,4,nan,nan,1692,0.97725254,-1.1124735,109.14771,280.60864,nan,nan,nan,nan,nan,nan
1980-03-04 13:19:38,1,-3.63333,3.41667,1.96667,0.585235,1,1,48892.1,73491.5,1692,0.97725147,-1.1125345,109.13574,280.6084,2.88002,344.25,3.55609,18.2926,28.4104,34.8318
1980-03-04 13:20:59,1,-4.16667,2.86667,2.15,0.428499,1,1,42481.6,73087.2,1692,0.9772504,-1.1125965,109.12378,280.60815,3.07691,340.217,0.487575,16.2863,26.4825,34.7359
1980-03-04 13:22:20,1,-4.8,1.81667,1.96667,0.277389,1,1,39031.3,78401.1,1692,0.97724819,-1.1127186,109.11157,280.60767,2.81625,329.947,-12.4961,13.5642,25.3843,35.9765
1980-03-04 13:23:41,1,-4.18571,1.44286,3.88571,0.90034,1,1,36840.6,81225.8,1692,0.97724712,-1.1127796,109.0957,280.60742,2.47895,331.594,-33.2553,39.322,24.6616,36.6189
1980-03-04 13:25:02,1,-3.95,2.56667,-0.466667,1.02483,1,1,32845.0,75120.9,1692,0.97724497,-1.1129017,109.08374,280.60718,2.88948,339.417,-2.92986,-4.44346,23.2859,35.2159
1980-03-04 13:26:23,1,-3.98571,2.15714,3.48571,0.509101,1,1,35762.1,71439.8,1692,0.9772439,-1.1129627,109.07178,280.60693,2.97928,342.504,-5.19542,30.0318,24.2979,34.3422
1980-03-04 13:27:44,1,-0.542857,4.54286,0.757143,0.364776,1,1,47413.4,83368.2,1692,0.97724283,-1.1130238,109.05981,280.60669,3.07846,377.799,12.1283,3.82888,27.9775,37.0986
1980-03-04 13:29:05,1,-0.0857143,4.6,0.571429,0.731228,1,1,192495.0,67144.3,1692,0.97724068,-1.1131458,109.04761,280.6062,4.15773,382.337,18.819,2.97133,56.3725,33.2937
1980-03-04 13:30:26,1,-1.9,4.28571,1.14286,0.330738,1,1,47089.3,65593.9,1692,0.97723961,-1.1132078,109.03589,280.6062,3.03801,370.282,11.5719,4.98518,27.8817,32.9071
1980-03-04 13:31:47,1,-1.84286,4.42857,1.54286,0.269542,1,1,61731.1,73103.0,1692,0.97723848,-1.1132689,109.02002,280.60596,3.21123,362.258,9.10059,9.02566,31.9235,34.7396
1980-03-04 13:33:08,1,-2.3,4.21429,1.91429,0.50669,1,1,38710.4,64275.3,1692,0.97723633,-1.1133909,109.00781,280.60547,2.86994,361.552,10.2309,20.4156,25.2797,32.5747
1980-03-04 13:35:50,1,-2.06667,4.1,1.93333,0.307318,1,1,55850.8,59646.5,1692,0.97723418,-1.113513,108.98389,280.60498,3.13014,362.733,10.6257,14.6532,30.3649,31.3798
1980-03-04 13:37:11,1,-2.31667,4.25,1.68333,0.329562,1,1,52864.0,77511.8,1692,0.97723204,-1.1136351,108.97192,280.60474,2.93254,363.909,12.0691,14.8974,29.5419,35.7719
1980-03-04 13:38:32,1,-2.68333,3.98333,1.2,0.368932,1,1,39525.5,59443.4,1692,0.97723097,-1.1136961,108.95996,280.60449,2.77688,351.592,7.38437,7.92858,25.5444,31.3263